User: anonymous
Location: State Camp
(41.2367°N, 77.7828°W)
Time: 15:58:05
(UTC-04:00)
Language:

Cosmos 1674 Rocket - Orbit

View from above orbital plane
View from above orbital plane
View from above satellite
View from above satellite

Ground track
Ground track

The orbit data is extracted from the following two-line orbital elements,

1 15945U 85069B   14203.69141822  .00000115  00000-0  11050-4 0  7070
2 15945 082.5258 045.9130 0020452 176.8163 227.7101 14.83368247563788
Epoch (UTC): 22 July 2014 16:35:38
Eccentricity: 0.0020452
inclination: 82.5258°
perigee height: 604 km
apogee height: 633 km
right ascension of ascending node: 45.9130°
argument of perigee: 176.8163°
revolutions per day: 14.83368247
mean anomaly at epoch: 227.7101°
orbit number at epoch: 56378

The dashed part of the orbit path shows where the satellite is in the earth's shadow,  

DLR